Regional Weather Roundup
Issued by NWS

Home | Current Version | Previous Version | Graphics & Text | Print | Product List | Glossary On
Versions: 1 2 3 4 5 6 7 8 9 10 11 12 13 14 15 16 17 18 19 20 21 22 23 24 25 26 27 28 29 30 31 32 33 34 35 36 37 38 39 40 41 42 43 44 45 46 47 48 49 50
000
ASUS43 KLMK 012010
RWRKY
KENTUCKY REGIONAL WEATHER ROUNDUP
NATIONAL WEATHER SERVICE LOUISVILLE KY
400 PM EDT SUN MAY 01 2016

NOTE "FAIR" INDICATES FEW OR NO CLOUDS BELOW 12,000 FEET
WITH NO SIGNIFICANT WEATHER AND/OR OBSTRUCTIONS TO VISIBILITY.

KYZ001>023-026-027-061>063-070>075-012100-
WESTERN AND SOUTH CENTRAL KENTUCKY

CITY           SKY/WX    TMP DP  RH WIND       PRES   REMARKS
PADUCAH        MOSUNNY   80  64  58 W9        29.91S
HENDERSON      MOSUNNY   79  64  61 SW12G20   29.89F
OWENSBORO      MOSUNNY   81  66  60 SW16      29.90F
HOPKINSVILLE   CLOUDY    76  66  71 NW7       29.93R
BOWLING GREEN  CLOUDY    80  63  55 SW14      29.92F
GLASGOW        MOSUNNY   80  64  57 SW13      29.92F
$$

KYZ024-025-028>034-038-045-046-053-012100-
NORTH CENTRAL KENTUCKY

CITY           SKY/WX    TMP DP  RH WIND       PRES   REMARKS
LOUISVILLE/SDF TSTM      70  59  68 NW6       29.91R
LOUISVILLE/LOU TSTM      67  61  81 N6        29.91R
FORT KNOX      TSTM      70  66  88 SW12      29.90F FOG
$$

KYZ035>037-039>044-047>052-055>060-089>105-012100-
NORTHEAST KENTUCKY

CITY           SKY/WX    TMP DP  RH WIND       PRES   REMARKS
LEXINGTON      LGT RAIN  74  62  66 S8        29.89F
COVINGTON      CLOUDY    77  57  50 S6        29.90F
FRANKFORT      TSTM      73  64  73 SW18G24   29.88F
$$

KYZ054-064>069-076>088-106>120-012100-
SOUTHEAST KENTUCKY

CITY           SKY/WX    TMP DP  RH WIND       PRES   REMARKS
JACKSON        MOSUNNY   76  61  59 VRB7      29.94F
LONDON         PTSUNNY   80  61  52 SW7       29.92F
SOMERSET       CLOUDY    79  61  53 W13G18    29.93F
MIDDLESBORO    SUNNY     80  63  55 S8        29.95F
MONTICELLO     PTCLDY    81  64  56 W22       29.94F
$$




USA.gov is the U.S. government's official web portal to all federal, state and local government web resources and services.